World > North America > United States > North Carolina

Hourly Oak Park, NC Regional Weather

Feedback E-mail the Weather

Quick WX

Oak Park, NC Weather Maps

°F °C°F °C
Oak Park Weather Map
UTC Time: 6/30/2022, 22:08
Your Time:

Oak Park, NC Regional Weather

Expires:202206302200;;459505
ASUS42 KRAH 302110
RWRRAH
NORTH CAROLINA WEATHER ROUNDUP
NATIONAL WEATHER SERVICE RALEIGH NC
500 PM EDT THU JUN 30 2022

NOTE: "FAIR" INDICATES FEW OR NO CLOUDS BELOW 12,000 FEET WITH NO
SIGNIFICANT WEATHER AND/OR OBSTRUCTIONS TO VISIBILITY.


NCZ001-053-055-056-065-067-302200-
WESTERN NORTH CAROLINA
  
CITY           SKY/WX    TMP DP  RH WIND       PRES   REMARKS
ASHEVILLE      PTSUNNY   81  63  54 SE8       30.23F                  
JEFFERSON      PTSUNNY   75  64  68 S3        30.29F                  
MORGANTON      PTSUNNY   89  67  48 S5        30.21F                  
HICKORY        PTSUNNY   85  67  54 VRB6      30.17F                  
WILKESBORO     PTSUNNY   82  66  57 S6        30.24S                  
RUTHERFORDTON  PTSUNNY   86  63  45 SE8G16    30.18F                  
MOUNT AIRY     CLOUDY    86  67  54 SE8       30.20F                  
BOONE          PTSUNNY   78  62  58 S7        30.29F                  
$$
 

SKY/WX - Weather  TMP - Temperature  DP - Dew Point  RH - Humidity
WIND - Wind Direction/Speed PRES - Barometric Pressure VSB - Visibility
WCI - Wind Chill Index E13G22 Wind - East Wind 13 mph/Gusts of 22 mph

Trending Headlines

Oak Park Radar Loop



Oak Park Quick Facts


National Two Day Weather Forecast


E-mail the Oak Park Weather Forecast

Voice your opinion or tell us about page issues...